Year,Month,Day,Hour,Minute,Value (Times are PST for temperature in C)
2007,08,24,00,00,17.20
2007,08,24,00,01,17.20
2007,08,24,00,02,17.20
2007,08,24,00,03,17.10
2007,08,24,00,04,17.10
2007,08,24,00,05,17.10
2007,08,24,00,06,17.10
2007,08,24,00,07,17.10
2007,08,24,00,08,17.10
2007,08,24,00,09,17.20
2007,08,24,00,10,17.20
2007,08,24,00,11,17.20
2007,08,24,00,12,17.20
2007,08,24,00,13,17.20
2007,08,24,00,14,17.20
2007,08,24,00,15,17.20
2007,08,24,00,16,17.20
2007,08,24,00,17,17.20
2007,08,24,00,18,17.20
2007,08,24,00,19,17.20
2007,08,24,00,20,17.20
2007,08,24,00,21,17.20
2007,08,24,00,22,17.20
2007,08,24,00,23,17.20
2007,08,24,00,24,17.20
2007,08,24,00,25,17.20
2007,08,24,00,26,17.20
2007,08,24,00,27,17.10
2007,08,24,00,28,17.10
2007,08,24,00,29,17.10
2007,08,24,00,30,17.10
2007,08,24,00,31,17.10
2007,08,24,00,32,17.10
2007,08,24,00,33,17.10
2007,08,24,00,34,17.10
2007,08,24,00,35,17.00
2007,08,24,00,36,16.90
2007,08,24,00,37,16.80
2007,08,24,00,38,16.70
2007,08,24,00,39,16.60
2007,08,24,00,40,16.50
2007,08,24,00,41,16.40
2007,08,24,00,42,16.20
2007,08,24,00,43,16.10
2007,08,24,00,44,16.10
2007,08,24,00,45,16.10
2007,08,24,00,46,16.00
2007,08,24,00,47,15.90
2007,08,24,00,48,15.70
2007,08,24,00,49,15.60
2007,08,24,00,50,15.50
2007,08,24,00,51,15.40
2007,08,24,00,52,15.20
2007,08,24,00,53,15.10
2007,08,24,00,54,15.00
2007,08,24,00,55,15.00
2007,08,24,00,56,14.90
2007,08,24,00,57,14.90
2007,08,24,00,58,14.90
2007,08,24,00,59,14.90
2007,08,24,01,00,14.90
2007,08,24,01,01,15.00
2007,08,24,01,02,15.00
2007,08,24,01,03,15.10
2007,08,24,01,04,15.10
2007,08,24,01,05,15.10
2007,08,24,01,06,15.10
2007,08,24,01,07,15.20
2007,08,24,01,08,15.20
2007,08,24,01,09,15.30
2007,08,24,01,10,15.30
2007,08,24,01,11,15.30
2007,08,24,01,12,15.40
2007,08,24,01,13,15.50
2007,08,24,01,14,15.50
2007,08,24,01,15,15.50
2007,08,24,01,16,15.50
2007,08,24,01,17,15.40
2007,08,24,01,18,15.40
2007,08,24,01,19,15.40
2007,08,24,01,20,15.30
2007,08,24,01,21,15.20
2007,08,24,01,22,15.20
2007,08,24,01,23,15.10
2007,08,24,01,24,15.10
2007,08,24,01,25,15.00
2007,08,24,01,26,15.00
2007,08,24,01,27,14.90
2007,08,24,01,28,14.90
2007,08,24,01,29,14.80
2007,08,24,01,30,14.80
2007,08,24,01,31,14.80
2007,08,24,01,32,14.80
2007,08,24,01,33,14.80
2007,08,24,01,34,14.80
2007,08,24,01,35,14.80
2007,08,24,01,36,14.80
2007,08,24,01,37,14.80
2007,08,24,01,38,14.80
2007,08,24,01,39,14.70
2007,08,24,01,40,14.70
2007,08,24,01,41,14.70
2007,08,24,01,42,14.70
2007,08,24,01,43,14.60
2007,08,24,01,44,14.60
2007,08,24,01,45,14.50
2007,08,24,01,46,14.50
2007,08,24,01,47,14.50
2007,08,24,01,48,14.30
2007,08,24,01,49,14.30
2007,08,24,01,50,14.30
2007,08,24,01,51,14.40
2007,08,24,01,52,14.40
2007,08,24,01,53,14.50
2007,08,24,01,54,14.60
2007,08,24,01,55,14.60
2007,08,24,01,56,14.70
2007,08,24,01,57,14.80
2007,08,24,01,58,14.80
2007,08,24,01,59,14.90
2007,08,24,02,00,14.90
2007,08,24,02,01,14.90
2007,08,24,02,02,15.00
2007,08,24,02,03,15.00
2007,08,24,02,04,15.00
2007,08,24,02,05,14.90
2007,08,24,02,06,14.90
2007,08,24,02,07,14.80
2007,08,24,02,08,14.80
2007,08,24,02,09,14.80
2007,08,24,02,10,14.80
2007,08,24,02,11,14.90
2007,08,24,02,12,14.90
2007,08,24,02,13,14.90
2007,08,24,02,14,14.80
2007,08,24,02,15,14.70
2007,08,24,02,16,14.60
2007,08,24,02,17,14.50
2007,08,24,02,18,14.40
2007,08,24,02,19,14.20
2007,08,24,02,20,14.20
2007,08,24,02,21,14.00
2007,08,24,02,22,13.90
2007,08,24,02,23,13.80
2007,08,24,02,24,13.70
2007,08,24,02,25,13.70
2007,08,24,02,26,13.70
2007,08,24,02,27,13.60
2007,08,24,02,28,13.60
2007,08,24,02,29,13.60
2007,08,24,02,30,13.60
2007,08,24,02,31,13.70
2007,08,24,02,32,13.70
2007,08,24,02,33,13.70
2007,08,24,02,34,13.80
2007,08,24,02,35,13.90
2007,08,24,02,36,14.00
2007,08,24,02,37,14.10
2007,08,24,02,38,14.20
2007,08,24,02,39,14.20
2007,08,24,02,40,14.20
2007,08,24,02,41,14.30
2007,08,24,02,42,14.30
2007,08,24,02,43,14.40
2007,08,24,02,44,14.40
2007,08,24,02,45,14.50
2007,08,24,02,46,14.50
2007,08,24,02,47,14.60
2007,08,24,02,48,14.60
2007,08,24,02,49,14.60
2007,08,24,02,50,14.70
2007,08,24,02,51,14.70
2007,08,24,02,52,14.60
2007,08,24,02,53,14.60
2007,08,24,02,54,14.50
2007,08,24,02,55,14.40
2007,08,24,02,56,14.30
2007,08,24,02,57,14.20
2007,08,24,02,58,14.20
2007,08,24,02,59,14.10
2007,08,24,03,00,14.00
2007,08,24,03,01,13.90
2007,08,24,03,02,13.90
2007,08,24,03,03,13.80
2007,08,24,03,04,13.70
2007,08,24,03,05,13.70
2007,08,24,03,06,13.70
2007,08,24,03,07,13.70
2007,08,24,03,08,13.70
2007,08,24,03,09,13.70
2007,08,24,03,10,13.70
2007,08,24,03,11,13.70
2007,08,24,03,12,13.70
2007,08,24,03,13,13.60
2007,08,24,03,14,13.50
2007,08,24,03,15,13.50
2007,08,24,03,16,13.40
2007,08,24,03,17,13.30
2007,08,24,03,18,13.30
2007,08,24,03,19,13.30
2007,08,24,03,20,13.30
2007,08,24,03,21,13.30
2007,08,24,03,22,13.30
2007,08,24,03,23,13.30
2007,08,24,03,24,13.30
2007,08,24,03,25,13.20
2007,08,24,03,26,13.10
2007,08,24,03,27,13.10
2007,08,24,03,28,13.10
2007,08,24,03,29,13.00
2007,08,24,03,30,13.00
2007,08,24,03,31,13.00
2007,08,24,03,32,12.90
2007,08,24,03,33,12.90
2007,08,24,03,34,12.90
2007,08,24,03,35,12.80
2007,08,24,03,36,12.80
2007,08,24,03,37,12.90
2007,08,24,03,38,12.90
2007,08,24,03,39,12.90
2007,08,24,03,40,12.90
2007,08,24,03,41,12.90
2007,08,24,03,42,12.90
2007,08,24,03,43,12.90
2007,08,24,03,44,12.90
2007,08,24,03,45,12.90
2007,08,24,03,46,12.90
2007,08,24,03,47,12.90
2007,08,24,03,48,12.90
2007,08,24,03,49,12.80
2007,08,24,03,50,12.80
2007,08,24,03,51,12.90
2007,08,24,03,52,13.00
2007,08,24,03,53,13.00
2007,08,24,03,54,13.10
2007,08,24,03,55,13.10
2007,08,24,03,56,13.10
2007,08,24,03,57,13.10
2007,08,24,03,58,13.10
2007,08,24,03,59,13.10
2007,08,24,04,00,13.00
2007,08,24,04,01,13.00
2007,08,24,04,02,13.00
2007,08,24,04,03,13.00
2007,08,24,04,04,13.10
2007,08,24,04,05,13.10
2007,08,24,04,06,13.20
2007,08,24,04,07,13.20
2007,08,24,04,08,13.30
2007,08,24,04,09,13.30
2007,08,24,04,10,13.30
2007,08,24,04,11,13.30
2007,08,24,04,12,13.30
2007,08,24,04,13,13.30
2007,08,24,04,14,13.30
2007,08,24,04,15,13.30
2007,08,24,04,16,13.30
2007,08,24,04,17,13.30
2007,08,24,04,18,13.30
2007,08,24,04,19,13.30
2007,08,24,04,20,13.30
2007,08,24,04,21,13.30
2007,08,24,04,22,13.30
2007,08,24,04,23,13.30
2007,08,24,04,24,13.30
2007,08,24,04,25,13.30
2007,08,24,04,26,13.30
2007,08,24,04,27,13.40
2007,08,24,04,28,13.40
2007,08,24,04,29,13.40
2007,08,24,04,30,13.40
2007,08,24,04,31,13.30
2007,08,24,04,32,13.30
2007,08,24,04,33,13.30
2007,08,24,04,34,13.30
2007,08,24,04,35,13.20
2007,08,24,04,36,13.20
2007,08,24,04,37,13.20
2007,08,24,04,38,13.20
2007,08,24,04,39,13.20
2007,08,24,04,40,13.20
2007,08,24,04,41,13.20
2007,08,24,04,42,13.20
2007,08,24,04,43,13.20
2007,08,24,04,44,13.20
2007,08,24,04,45,13.20
2007,08,24,04,46,13.20
2007,08,24,04,47,13.20
2007,08,24,04,48,13.30
2007,08,24,04,49,13.30
2007,08,24,04,50,13.30
2007,08,24,04,51,13.40
2007,08,24,04,52,13.40
2007,08,24,04,53,13.40
2007,08,24,04,54,13.40
2007,08,24,04,55,13.40
2007,08,24,04,56,13.40
2007,08,24,04,57,13.40
2007,08,24,04,58,13.40
2007,08,24,04,59,13.40
2007,08,24,05,00,13.40
2007,08,24,05,01,13.40
2007,08,24,05,02,13.40
2007,08,24,05,03,13.50
2007,08,24,05,04,13.50
2007,08,24,05,05,13.60
2007,08,24,05,06,13.60
2007,08,24,05,07,13.70
2007,08,24,05,08,13.70
2007,08,24,05,09,13.70
2007,08,24,05,10,13.70
2007,08,24,05,11,13.70
2007,08,24,05,12,13.70
2007,08,24,05,13,13.70
2007,08,24,05,14,13.70
2007,08,24,05,15,13.80
2007,08,24,05,16,13.80
2007,08,24,05,17,13.80
2007,08,24,05,18,13.80
2007,08,24,05,19,13.80
2007,08,24,05,20,13.80
2007,08,24,05,21,13.80
2007,08,24,05,22,13.80
2007,08,24,05,23,13.80
2007,08,24,05,24,13.80
2007,08,24,05,25,13.80
2007,08,24,05,26,13.90
2007,08,24,05,27,13.90
2007,08,24,05,28,13.90
2007,08,24,05,29,13.90
2007,08,24,05,30,13.90
2007,08,24,05,31,13.90
2007,08,24,05,32,13.90
2007,08,24,05,33,13.90
2007,08,24,05,34,14.00
2007,08,24,05,35,14.00
2007,08,24,05,36,14.00
2007,08,24,05,37,14.00
2007,08,24,05,38,14.00
2007,08,24,05,39,14.10
2007,08,24,05,40,14.10
2007,08,24,05,41,14.10
2007,08,24,05,42,14.00
2007,08,24,05,43,14.00
2007,08,24,05,44,14.00
2007,08,24,05,45,13.90
2007,08,24,05,46,13.90
2007,08,24,05,47,13.80
2007,08,24,05,48,13.80
2007,08,24,05,49,13.80
2007,08,24,05,50,13.80
2007,08,24,05,51,13.70
2007,08,24,05,52,13.80
2007,08,24,05,53,13.80
2007,08,24,05,54,13.80
2007,08,24,05,55,13.70
2007,08,24,05,56,13.70
2007,08,24,05,57,13.70
2007,08,24,05,58,13.70
2007,08,24,05,59,13.70
2007,08,24,06,00,13.70
2007,08,24,06,01,13.80
2007,08,24,06,02,13.80
2007,08,24,06,03,13.80
2007,08,24,06,04,13.80
2007,08,24,06,05,13.70
2007,08,24,06,06,13.70
2007,08,24,06,07,13.70
2007,08,24,06,08,13.70
2007,08,24,06,09,13.70
2007,08,24,06,10,13.70
2007,08,24,06,11,13.70
2007,08,24,06,12,13.70
2007,08,24,06,13,13.70
2007,08,24,06,14,13.70
2007,08,24,06,15,13.70
2007,08,24,06,16,13.70
2007,08,24,06,17,13.70
2007,08,24,06,18,13.70
2007,08,24,06,19,13.70
2007,08,24,06,20,13.70
2007,08,24,06,21,13.70
2007,08,24,06,22,13.70
2007,08,24,06,23,13.70
2007,08,24,06,24,13.60
2007,08,24,06,25,13.60
2007,08,24,06,26,13.60
2007,08,24,06,27,13.60
2007,08,24,06,28,13.60
2007,08,24,06,29,13.60
2007,08,24,06,30,13.60
2007,08,24,06,31,13.60
2007,08,24,06,32,13.50
2007,08,24,06,33,13.40
2007,08,24,06,34,13.40
2007,08,24,06,35,13.40
2007,08,24,06,36,13.40
2007,08,24,06,37,13.40
2007,08,24,06,38,13.40
2007,08,24,06,39,13.40
2007,08,24,06,40,13.40
2007,08,24,06,41,13.30
2007,08,24,06,42,13.30
2007,08,24,06,43,13.30
2007,08,24,06,44,13.30
2007,08,24,06,45,13.40
2007,08,24,06,46,13.50
2007,08,24,06,47,13.50
2007,08,24,06,48,13.60
2007,08,24,06,49,13.60
2007,08,24,06,50,13.70
2007,08,24,06,51,13.70
2007,08,24,06,52,13.80
2007,08,24,06,53,13.90
2007,08,24,06,54,14.00
2007,08,24,06,55,14.00
2007,08,24,06,56,14.10
2007,08,24,06,57,14.20
2007,08,24,06,58,14.20
2007,08,24,06,59,14.30
2007,08,24,07,00,14.40
2007,08,24,07,01,14.50
2007,08,24,07,02,14.50
2007,08,24,07,03,14.60
2007,08,24,07,04,14.60
2007,08,24,07,05,14.70
2007,08,24,07,06,14.80
2007,08,24,07,07,14.80
2007,08,24,07,08,14.80
2007,08,24,07,09,14.90
2007,08,24,07,10,15.00
2007,08,24,07,11,15.00
2007,08,24,07,12,15.10
2007,08,24,07,13,15.10
2007,08,24,07,14,15.10
2007,08,24,07,15,15.10
2007,08,24,07,16,15.10
2007,08,24,07,17,15.10
2007,08,24,07,18,15.10
2007,08,24,07,19,15.10
2007,08,24,07,20,15.20
2007,08,24,07,21,15.20
2007,08,24,07,22,15.20
2007,08,24,07,23,15.30
2007,08,24,07,24,15.40
2007,08,24,07,25,15.40
2007,08,24,07,26,15.50
2007,08,24,07,27,15.60
2007,08,24,07,28,15.70
2007,08,24,07,29,15.80
2007,08,24,07,30,15.80
2007,08,24,07,31,15.90
2007,08,24,07,32,16.00
2007,08,24,07,33,16.10
2007,08,24,07,34,16.10
2007,08,24,07,35,16.20
2007,08,24,07,36,16.30
2007,08,24,07,37,16.30
2007,08,24,07,38,16.30
2007,08,24,07,39,16.40
2007,08,24,07,40,16.40
2007,08,24,07,41,16.50
2007,08,24,07,42,16.60
2007,08,24,07,43,16.60
2007,08,24,07,44,16.70
2007,08,24,07,45,16.70
2007,08,24,07,46,16.80
2007,08,24,07,47,16.80
2007,08,24,07,48,16.90
2007,08,24,07,49,17.00
2007,08,24,07,50,17.00
2007,08,24,07,51,17.10
2007,08,24,07,52,17.20
2007,08,24,07,53,17.30
2007,08,24,07,54,17.30
2007,08,24,07,55,17.40
2007,08,24,07,56,17.50
2007,08,24,07,57,17.60
2007,08,24,07,58,17.70
2007,08,24,07,59,17.80
2007,08,24,08,00,17.90
2007,08,24,08,01,17.90
2007,08,24,08,02,17.90
2007,08,24,08,03,18.00
2007,08,24,08,04,18.10
2007,08,24,08,05,18.10
2007,08,24,08,06,18.00
2007,08,24,08,07,17.90
2007,08,24,08,08,17.90
2007,08,24,08,09,17.90
2007,08,24,08,10,17.90
2007,08,24,08,11,17.90
2007,08,24,08,12,17.90
2007,08,24,08,13,17.80
2007,08,24,08,14,17.70
2007,08,24,08,15,17.60
2007,08,24,08,16,17.50
2007,08,24,08,17,17.40
2007,08,24,08,18,17.40
2007,08,24,08,19,17.40
2007,08,24,08,20,17.40
2007,08,24,08,21,17.40
2007,08,24,08,22,17.40
2007,08,24,08,23,17.50
2007,08,24,08,24,17.50
2007,08,24,08,25,17.70
2007,08,24,08,26,17.70
2007,08,24,08,27,17.70
2007,08,24,08,28,17.80
2007,08,24,08,29,17.80
2007,08,24,08,30,17.80
2007,08,24,08,31,17.80
2007,08,24,08,32,17.80
2007,08,24,08,33,17.90
2007,08,24,08,34,17.90
2007,08,24,08,35,17.90
2007,08,24,08,36,17.90
2007,08,24,08,37,17.90
2007,08,24,08,38,17.90
2007,08,24,08,39,17.90
2007,08,24,08,40,17.90
2007,08,24,08,41,17.80
2007,08,24,08,42,17.70
2007,08,24,08,43,17.70
2007,08,24,08,44,17.70
2007,08,24,08,45,17.70
2007,08,24,08,46,17.70
2007,08,24,08,47,17.80
2007,08,24,08,48,17.80
2007,08,24,08,49,17.90
2007,08,24,08,50,17.90
2007,08,24,08,51,17.90
2007,08,24,08,52,17.80
2007,08,24,08,53,17.80
2007,08,24,08,54,17.80
2007,08,24,08,55,17.90
2007,08,24,08,56,17.90
2007,08,24,08,57,17.90
2007,08,24,08,58,18.10
2007,08,24,08,59,18.20
2007,08,24,09,00,18.20
2007,08,24,09,01,18.20
2007,08,24,09,02,18.30
2007,08,24,09,03,18.40
2007,08,24,09,04,18.40
2007,08,24,09,05,18.50
2007,08,24,09,06,18.50
2007,08,24,09,07,18.40
2007,08,24,09,08,18.30
2007,08,24,09,09,18.30
2007,08,24,09,10,18.20
2007,08,24,09,11,18.20
2007,08,24,09,12,18.20
2007,08,24,09,13,18.30
2007,08,24,09,14,18.30
2007,08,24,09,15,18.30
2007,08,24,09,16,18.40
2007,08,24,09,17,18.50
2007,08,24,09,18,18.60
2007,08,24,09,19,18.60
2007,08,24,09,20,18.60
2007,08,24,09,21,18.60
2007,08,24,09,22,18.50
2007,08,24,09,23,18.40
2007,08,24,09,24,18.30
2007,08,24,09,25,18.30
2007,08,24,09,26,18.30
2007,08,24,09,27,18.40
2007,08,24,09,28,18.50
2007,08,24,09,29,18.50
2007,08,24,09,30,18.50
2007,08,24,09,31,18.50
2007,08,24,09,32,18.60
2007,08,24,09,33,18.60
2007,08,24,09,34,18.60
2007,08,24,09,35,18.50
2007,08,24,09,36,18.50
2007,08,24,09,37,18.60
2007,08,24,09,38,18.60
2007,08,24,09,39,18.60
2007,08,24,09,40,18.60
2007,08,24,09,41,18.60
2007,08,24,09,42,18.80
2007,08,24,09,43,18.90
2007,08,24,09,44,18.90
2007,08,24,09,45,18.90
2007,08,24,09,46,18.90
2007,08,24,09,47,19.00
2007,08,24,09,48,19.00
2007,08,24,09,49,18.90
2007,08,24,09,50,18.80
2007,08,24,09,51,18.70
2007,08,24,09,52,18.90
2007,08,24,09,53,18.90
2007,08,24,09,54,18.90
2007,08,24,09,55,18.90
2007,08,24,09,56,19.00
2007,08,24,09,57,19.10
2007,08,24,09,58,19.10
2007,08,24,09,59,19.00
2007,08,24,10,00,18.90
2007,08,24,10,01,19.00
2007,08,24,10,02,19.10
2007,08,24,10,03,19.10
2007,08,24,10,04,19.10
2007,08,24,10,05,19.10
2007,08,24,10,06,19.10
2007,08,24,10,07,19.10
2007,08,24,10,08,19.10
2007,08,24,10,09,19.30
2007,08,24,10,10,19.40
2007,08,24,10,11,19.30
2007,08,24,10,12,19.30
2007,08,24,10,13,19.30
2007,08,24,10,14,19.30
2007,08,24,10,15,19.40
2007,08,24,10,16,19.40
2007,08,24,10,17,19.40
2007,08,24,10,18,19.30
2007,08,24,10,19,19.30
2007,08,24,10,20,19.40
2007,08,24,10,21,19.40
2007,08,24,10,22,19.50
2007,08,24,10,23,19.70
2007,08,24,10,24,19.90
2007,08,24,10,25,19.90
2007,08,24,10,26,19.80
2007,08,24,10,27,19.70
2007,08,24,10,28,19.60
2007,08,24,10,29,19.50
2007,08,24,10,30,19.50
2007,08,24,10,31,19.50
2007,08,24,10,32,19.50
2007,08,24,10,33,19.40
2007,08,24,10,34,19.50
2007,08,24,10,35,19.50
2007,08,24,10,36,19.40
2007,08,24,10,37,19.50
2007,08,24,10,38,19.60
2007,08,24,10,39,19.70
2007,08,24,10,40,19.70
2007,08,24,10,41,19.80
2007,08,24,10,42,19.70
2007,08,24,10,43,19.60
2007,08,24,10,44,19.70
2007,08,24,10,45,19.70
2007,08,24,10,46,19.90
2007,08,24,10,47,19.90
2007,08,24,10,48,19.90
2007,08,24,10,49,19.90
2007,08,24,10,50,19.80
2007,08,24,10,51,19.80
2007,08,24,10,52,19.80
2007,08,24,10,53,19.80
2007,08,24,10,54,19.70
2007,08,24,10,55,19.60
2007,08,24,10,56,19.50
2007,08,24,10,57,19.40
2007,08,24,10,58,19.30
2007,08,24,10,59,19.10
2007,08,24,11,00,19.00
2007,08,24,11,01,18.90
2007,08,24,11,02,18.80
2007,08,24,11,03,18.80
2007,08,24,11,04,18.80
2007,08,24,11,05,18.90
2007,08,24,11,06,18.90
2007,08,24,11,07,18.80
2007,08,24,11,08,18.80
2007,08,24,11,09,18.80
2007,08,24,11,10,18.90
2007,08,24,11,11,18.90
2007,08,24,11,12,18.70
2007,08,24,11,13,18.70
2007,08,24,11,14,18.60
2007,08,24,11,15,18.60
2007,08,24,11,16,18.50
2007,08,24,11,17,18.50
2007,08,24,11,18,18.50
2007,08,24,11,19,18.60
2007,08,24,11,20,18.70
2007,08,24,11,21,18.60
2007,08,24,11,22,18.40
2007,08,24,11,23,18.40
2007,08,24,11,24,18.20
2007,08,24,11,25,18.20
2007,08,24,11,26,18.20
2007,08,24,11,27,18.10
2007,08,24,11,28,18.10
2007,08,24,11,29,18.00
2007,08,24,11,30,18.00
2007,08,24,11,31,18.10
2007,08,24,11,32,18.20
2007,08,24,11,33,18.30
2007,08,24,11,34,18.40
2007,08,24,11,35,18.40
2007,08,24,11,36,18.40
2007,08,24,11,37,18.50
2007,08,24,11,38,18.60
2007,08,24,11,39,18.70
2007,08,24,11,40,18.70
2007,08,24,11,41,18.70
2007,08,24,11,42,18.60
2007,08,24,11,43,18.60
2007,08,24,11,44,18.70
2007,08,24,11,45,18.90
2007,08,24,11,46,18.90
2007,08,24,11,47,19.00
2007,08,24,11,48,19.10
2007,08,24,11,49,19.10
2007,08,24,11,50,19.10
2007,08,24,11,51,19.10
2007,08,24,11,52,19.30
2007,08,24,11,53,19.20
2007,08,24,11,54,19.10
2007,08,24,11,55,19.10
2007,08,24,11,56,19.10
2007,08,24,11,57,19.10
2007,08,24,11,58,19.20
2007,08,24,11,59,19.20
2007,08,24,12,00,19.30
2007,08,24,12,01,19.40
2007,08,24,12,02,19.40
2007,08,24,12,03,19.50
2007,08,24,12,04,19.50
2007,08,24,12,05,19.70
2007,08,24,12,06,19.80
2007,08,24,12,07,19.90
2007,08,24,12,08,19.90
2007,08,24,12,09,19.80
2007,08,24,12,10,19.70
2007,08,24,12,11,19.70
2007,08,24,12,12,19.70
2007,08,24,12,13,19.70
2007,08,24,12,14,19.80
2007,08,24,12,15,19.90
2007,08,24,12,16,19.90
2007,08,24,12,17,19.90
2007,08,24,12,18,20.10
2007,08,24,12,19,20.20
2007,08,24,12,20,20.20
2007,08,24,12,21,20.20
2007,08,24,12,22,20.20
2007,08,24,12,23,20.10
2007,08,24,12,24,20.20
2007,08,24,12,25,20.10
2007,08,24,12,26,19.90
2007,08,24,12,27,19.90
2007,08,24,12,28,19.90
2007,08,24,12,29,19.90
2007,08,24,12,30,19.90
2007,08,24,12,31,19.90
2007,08,24,12,32,19.90
2007,08,24,12,33,19.90
2007,08,24,12,34,19.90
2007,08,24,12,35,19.90
2007,08,24,12,36,20.00
2007,08,24,12,37,20.20
2007,08,24,12,38,20.20
2007,08,24,12,39,20.20
2007,08,24,12,40,20.20
2007,08,24,12,41,20.20
2007,08,24,12,42,20.00
2007,08,24,12,43,19.90
2007,08,24,12,44,20.00
2007,08,24,12,45,20.00
2007,08,24,12,46,20.00
2007,08,24,12,47,20.00
2007,08,24,12,48,19.90
2007,08,24,12,49,19.80
2007,08,24,12,50,19.80
2007,08,24,12,51,19.80
2007,08,24,12,52,19.80
2007,08,24,12,53,19.80
2007,08,24,12,54,19.70
2007,08,24,12,55,19.70
2007,08,24,12,56,19.80
2007,08,24,12,57,19.80
2007,08,24,12,58,19.90
2007,08,24,12,59,20.00
2007,08,24,13,00,20.10
2007,08,24,13,01,20.00
2007,08,24,13,02,19.90
2007,08,24,13,03,19.90
2007,08,24,13,04,20.10
2007,08,24,13,05,20.30
2007,08,24,13,06,20.70
2007,08,24,13,07,21.00
2007,08,24,13,08,21.30
2007,08,24,13,09,21.50
2007,08,24,13,10,21.70
2007,08,24,13,11,21.70
2007,08,24,13,12,21.80
2007,08,24,13,13,21.90
2007,08,24,13,14,22.00
2007,08,24,13,15,22.10
2007,08,24,13,16,22.30
2007,08,24,13,17,22.60
2007,08,24,13,18,22.90
2007,08,24,13,19,22.90
2007,08,24,13,20,23.10
2007,08,24,13,21,23.10
2007,08,24,13,22,23.30
2007,08,24,13,23,23.20
2007,08,24,13,24,23.10
2007,08,24,13,25,23.00
2007,08,24,13,26,22.90
2007,08,24,13,27,22.70
2007,08,24,13,28,22.60
2007,08,24,13,29,22.40
2007,08,24,13,30,22.40
2007,08,24,13,31,22.30
2007,08,24,13,32,22.20
2007,08,24,13,33,22.20
2007,08,24,13,34,22.20
2007,08,24,13,35,22.40
2007,08,24,13,36,22.40
2007,08,24,13,37,22.30
2007,08,24,13,38,22.20
2007,08,24,13,39,22.20
2007,08,24,13,40,22.40
2007,08,24,13,41,22.40
2007,08,24,13,42,22.50
2007,08,24,13,43,22.30
2007,08,24,13,44,22.10
2007,08,24,13,45,22.00
2007,08,24,13,46,21.80
2007,08,24,13,47,21.80
2007,08,24,13,48,21.90
2007,08,24,13,49,22.00
2007,08,24,13,50,22.00
2007,08,24,13,51,22.00
2007,08,24,13,52,22.00
2007,08,24,13,53,21.70
2007,08,24,13,54,21.60
2007,08,24,13,55,21.60
2007,08,24,13,56,21.60
2007,08,24,13,57,21.60
2007,08,24,13,58,21.70
2007,08,24,13,59,21.90
2007,08,24,14,00,22.00
2007,08,24,14,01,22.00
2007,08,24,14,02,22.00
2007,08,24,14,03,22.20
2007,08,24,14,04,22.30
2007,08,24,14,05,22.40
2007,08,24,14,06,22.50
2007,08,24,14,07,22.60
2007,08,24,14,08,22.60
2007,08,24,14,09,22.80
2007,08,24,14,10,22.90
2007,08,24,14,11,22.70
2007,08,24,14,12,22.80
2007,08,24,14,13,22.80
2007,08,24,14,14,22.90
2007,08,24,14,15,23.10
2007,08,24,14,16,23.20
2007,08,24,14,17,23.20
2007,08,24,14,18,23.10
2007,08,24,14,19,23.00
2007,08,24,14,20,23.00
2007,08,24,14,21,23.10
2007,08,24,14,22,23.10
2007,08,24,14,23,23.30
2007,08,24,14,24,23.30
2007,08,24,14,25,23.30
2007,08,24,14,26,23.30
2007,08,24,14,27,23.40
2007,08,24,14,28,23.50
2007,08,24,14,29,23.60
2007,08,24,14,30,23.70
2007,08,24,14,31,23.70
2007,08,24,14,32,23.60
2007,08,24,14,33,23.50
2007,08,24,14,34,23.50
2007,08,24,14,35,23.30
2007,08,24,14,36,23.30
2007,08,24,14,37,22.90
2007,08,24,14,38,22.90
2007,08,24,14,39,22.80
2007,08,24,14,40,22.70
2007,08,24,14,41,22.60
2007,08,24,14,42,22.50
2007,08,24,14,43,22.50
2007,08,24,14,44,22.60
2007,08,24,14,45,22.60
2007,08,24,14,46,22.60
2007,08,24,14,47,22.60
2007,08,24,14,48,22.60
2007,08,24,14,49,22.60
2007,08,24,14,50,22.80
2007,08,24,14,51,22.90
2007,08,24,14,52,23.10
2007,08,24,14,53,23.40
2007,08,24,14,54,23.70
2007,08,24,14,55,23.70
2007,08,24,14,56,23.70
2007,08,24,14,57,23.80
2007,08,24,14,58,23.80
2007,08,24,14,59,23.80
2007,08,24,15,00,23.90
2007,08,24,15,01,23.90
2007,08,24,15,02,23.90
2007,08,24,15,03,23.70
2007,08,24,15,04,23.60
2007,08,24,15,05,23.40
2007,08,24,15,06,23.30
2007,08,24,15,07,23.20
2007,08,24,15,08,22.90
2007,08,24,15,09,22.70
2007,08,24,15,10,22.50
2007,08,24,15,11,22.40
2007,08,24,15,12,22.40
2007,08,24,15,13,22.40
2007,08,24,15,14,22.50
2007,08,24,15,15,22.60
2007,08,24,15,16,22.70
2007,08,24,15,17,22.70
2007,08,24,15,18,22.70
2007,08,24,15,19,22.80
2007,08,24,15,20,22.90
2007,08,24,15,21,22.90
2007,08,24,15,22,23.10
2007,08,24,15,23,23.30
2007,08,24,15,24,23.30
2007,08,24,15,25,23.20
2007,08,24,15,26,23.10
2007,08,24,15,27,22.80
2007,08,24,15,28,22.80
2007,08,24,15,29,22.90
2007,08,24,15,30,22.90
2007,08,24,15,31,23.00
2007,08,24,15,32,22.90
2007,08,24,15,33,22.70
2007,08,24,15,34,22.50
2007,08,24,15,35,22.20
2007,08,24,15,36,22.00
2007,08,24,15,37,21.90
2007,08,24,15,38,22.00
2007,08,24,15,39,22.10
2007,08,24,15,40,22.10
2007,08,24,15,41,22.10
2007,08,24,15,42,22.10
2007,08,24,15,43,22.10
2007,08,24,15,44,22.20
2007,08,24,15,45,22.30
2007,08,24,15,46,22.50
2007,08,24,15,47,22.60
2007,08,24,15,48,22.80
2007,08,24,15,49,23.00
2007,08,24,15,50,23.20
2007,08,24,15,51,23.30
2007,08,24,15,52,23.40
2007,08,24,15,53,23.60
2007,08,24,15,54,23.70
2007,08,24,15,55,23.80
2007,08,24,15,56,23.90
2007,08,24,15,57,23.90
2007,08,24,15,58,24.10
2007,08,24,15,59,24.20
2007,08,24,16,00,24.30
2007,08,24,16,01,24.40
2007,08,24,16,02,24.40
2007,08,24,16,03,24.50
2007,08,24,16,04,24.40
2007,08,24,16,05,24.40
2007,08,24,16,06,24.30
2007,08,24,16,07,24.10
2007,08,24,16,08,24.00
2007,08,24,16,09,24.00
2007,08,24,16,10,24.10
2007,08,24,16,11,24.00
2007,08,24,16,12,23.90
2007,08,24,16,13,23.90
2007,08,24,16,14,23.90
2007,08,24,16,15,23.80
2007,08,24,16,16,23.70
2007,08,24,16,17,23.70
2007,08,24,16,18,23.70
2007,08,24,16,19,23.70
2007,08,24,16,20,23.70
2007,08,24,16,21,23.80
2007,08,24,16,22,23.90
2007,08,24,16,23,24.10
2007,08,24,16,24,23.90
2007,08,24,16,25,23.70
2007,08,24,16,26,23.70
2007,08,24,16,27,23.60
2007,08,24,16,28,23.30
2007,08,24,16,29,23.30
2007,08,24,16,30,23.30
2007,08,24,16,31,23.30
2007,08,24,16,32,23.30
2007,08,24,16,33,23.40
2007,08,24,16,34,23.50
2007,08,24,16,35,23.70
2007,08,24,16,36,23.70
2007,08,24,16,37,23.70
2007,08,24,16,38,23.80
2007,08,24,16,39,23.90
2007,08,24,16,40,24.10
2007,08,24,16,41,24.10
2007,08,24,16,42,24.30
2007,08,24,16,43,24.40
2007,08,24,16,44,24.40
2007,08,24,16,45,24.30
2007,08,24,16,46,24.30
2007,08,24,16,47,24.30
2007,08,24,16,48,24.30
2007,08,24,16,49,24.30
2007,08,24,16,50,24.20
2007,08,24,16,51,24.10
2007,08,24,16,52,24.10
2007,08,24,16,53,24.00
2007,08,24,16,54,23.90
2007,08,24,16,55,24.00
2007,08,24,16,56,24.10
2007,08,24,16,57,24.00
2007,08,24,16,58,23.90
2007,08,24,16,59,23.90
2007,08,24,17,00,24.00
2007,08,24,17,01,24.10
2007,08,24,17,02,24.10
2007,08,24,17,03,24.10
2007,08,24,17,04,24.10
2007,08,24,17,05,24.10
2007,08,24,17,06,24.10
2007,08,24,17,07,24.10
2007,08,24,17,08,24.10
2007,08,24,17,09,24.10
2007,08,24,17,10,24.20
2007,08,24,17,11,24.10
2007,08,24,17,12,24.10
2007,08,24,17,13,24.10
2007,08,24,17,14,24.10
2007,08,24,17,15,24.10
2007,08,24,17,16,24.10
2007,08,24,17,17,24.10
2007,08,24,17,18,24.10
2007,08,24,17,19,24.10